Location: Ambrosina
(19.9365°S, 43.9833°W)
Time: 09:12:23
(UTC+00:00)

Spot 2 - Pass Details

Date: 11 May 2021
Orbit: 569 x 774 km, 98.7° (Epoch: 22 June)

Event Time Altitude Azimuth Distance (km) Brightness Sun altitude
Rises 21:11:41 0° 164° (SSE) 3,262 7.4 -10.5°
Reaches altitude 10° 21:14:02 10° 161° (SSE) 2,335 6.7 -11.0°
Maximum altitude 21:19:12 68° 78° (ENE) 830 4.5 -12.2°
Drops below altitude 10° 21:24:14 10° 355° (N) 2,280 7.2 -13.3°
Sets 21:26:30 0° 352° (N) 3,179 8.0 -13.8°
